Location: Stone Trail Observatory
(44.2408°N, 105.6081°W)
Time: 00:48:28
(UTC-06:00)

Iridium 6 - Visible Passes

Search period start: 20 August 2014 00:00
Search period end: 30 August 2014 00:00
Orbit: 776 x 779 km, 86.4° (Epoch: 19 August)

Date Brightness Start Highest point End Pass type
(mag) Time Alt. Az. Time Alt. Az. Time Alt. Az.
20 Aug 7.9 04:09:40 10° SE 04:13:35 22° E 04:17:31 10° NNE visible
21 Aug 8.4 03:38:24 10° E 03:40:26 12° ENE 03:42:28 10° NE visible
21 Aug 5.5 05:15:09 10° S 05:20:21 84° W 05:25:36 10° N visible
22 Aug 6.3 04:41:50 10° SSE 04:46:53 55° E 04:51:58 10° NNE visible
23 Aug 7.3 04:09:01 10° SE 04:13:32 31° E 04:18:03 10° NNE visible
24 Aug 8.1 03:36:56 10° ESE 03:40:18 18° ENE 03:43:40 10° NE visible
24 Aug 5.6 05:15:22 10° SSW 05:20:30 59° W 05:25:39 10° N visible
25 Aug 5.6 04:41:45 10° S 04:46:56 78° E 04:52:10 10° N visible
26 Aug 6.6 04:08:37 10° SSE 04:13:31 43° E 04:18:26 10° NNE visible
27 Aug 7.5 03:36:04 10° SE 03:40:13 25° E 03:44:22 10° NNE visible
27 Aug 6.0 05:15:47 10° SSW 05:20:40 41° W 05:25:36 10° N visible
28 Aug 8.2 03:04:26 10° ESE 03:07:02 14° ENE 03:09:38 10° NE visible
28 Aug 5.4 04:42:45 15° S 04:47:03 74° W 04:52:16 10° N visible
29 Aug 5.9 04:09:52 19° SSE 04:13:32 62° E 04:18:41 10° N visible
29 Aug 7.1 05:51:24 10° WSW 05:54:44 17° WNW 05:58:06 10° NNW visible
